sat.trackr.live / text

‹ back to catalog

STARLINK-36567

NORAD 67552 · 2026-014W

PAYLOAD ACTIVE UNKNOWN

§ Identity

Operator
Country
US
Launch date
2026-01-22
Launch site
AFWTR
Launch vehicle
Mass (kg)
RCS (m²)

Purposes: comms

External: N2YO · Heavens-Above · Gunter

§ Orbital elements

Epoch: 2026-09-19T14:25:13.067616Z

Period
93.90 min
Inclination
97.2856°
Eccentricity
0.0001530
Mean motion
15.33472889 rev/d
Perigee alt
464.4 km
Apogee alt
466.5 km
Semi-major
6,843.6 km
B*
3.8257e-4
RAAN
148.0288°
Arg perigee
48.7906°
Mean anomaly
311.3468°
Rev number
3,849

§ Raw data

STARLINK-365671 67552U 26014W   26262.60084569  .00012307  00000+0  38257-3 0  99942 67552  97.2856 148.0288 0001530  48.7906 311.3468 15.33472889 38498

JSON: /api/v1/satellites/67552 · /tle

For live sub-satellite position, see the globe view (requires WebGL).

§ Visibility from observer

Set your observer location to see the next 7 days of passes ≥ 10°. The values pass through the URL so the page stays shareable.

No JS? Fill the form by hand. The geolocation button needs JavaScript.